Year,Month,Day,Hour,Minute,Value (Times are PST for temperature in C)
2011,05,24,00,00,9.40
2011,05,24,00,01,9.40
2011,05,24,00,02,9.30
2011,05,24,00,03,9.30
2011,05,24,00,04,9.30
2011,05,24,00,05,9.30
2011,05,24,00,06,9.30
2011,05,24,00,07,9.30
2011,05,24,00,08,9.30
2011,05,24,00,09,9.30
2011,05,24,00,10,9.30
2011,05,24,00,11,9.30
2011,05,24,00,12,9.30
2011,05,24,00,13,9.30
2011,05,24,00,14,9.30
2011,05,24,00,15,9.30
2011,05,24,00,16,9.30
2011,05,24,00,17,9.30
2011,05,24,00,18,9.20
2011,05,24,00,19,9.20
2011,05,24,00,20,9.20
2011,05,24,00,21,9.20
2011,05,24,00,22,9.20
2011,05,24,00,23,9.20
2011,05,24,00,24,9.10
2011,05,24,00,25,9.10
2011,05,24,00,26,9.00
2011,05,24,00,27,9.00
2011,05,24,00,28,9.00
2011,05,24,00,29,9.00
2011,05,24,00,30,8.90
2011,05,24,00,31,8.90
2011,05,24,00,32,8.90
2011,05,24,00,33,8.80
2011,05,24,00,34,8.80
2011,05,24,00,35,8.80
2011,05,24,00,36,8.80
2011,05,24,00,37,8.70
2011,05,24,00,38,8.70
2011,05,24,00,39,8.70
2011,05,24,00,40,8.70
2011,05,24,00,41,8.70
2011,05,24,00,42,8.70
2011,05,24,00,43,8.70
2011,05,24,00,44,8.70
2011,05,24,00,45,8.70
2011,05,24,00,46,8.70
2011,05,24,00,47,8.70
2011,05,24,00,48,8.70
2011,05,24,00,49,8.70
2011,05,24,00,50,8.60
2011,05,24,00,51,8.60
2011,05,24,00,52,8.60
2011,05,24,00,53,8.60
2011,05,24,00,54,8.50
2011,05,24,00,55,8.50
2011,05,24,00,56,8.50
2011,05,24,00,57,8.50
2011,05,24,00,58,8.50
2011,05,24,00,59,8.50
2011,05,24,01,00,8.50
2011,05,24,01,01,8.50
2011,05,24,01,02,8.60
2011,05,24,01,03,8.60
2011,05,24,01,04,8.60
2011,05,24,01,05,8.70
2011,05,24,01,06,8.70
2011,05,24,01,07,8.70
2011,05,24,01,08,8.70
2011,05,24,01,09,8.70
2011,05,24,01,10,8.70
2011,05,24,01,11,8.70
2011,05,24,01,12,8.80
2011,05,24,01,13,8.80
2011,05,24,01,14,8.90
2011,05,24,01,15,8.90
2011,05,24,01,16,8.90
2011,05,24,01,17,9.00
2011,05,24,01,18,9.00
2011,05,24,01,19,9.00
2011,05,24,01,20,9.00
2011,05,24,01,21,9.00
2011,05,24,01,22,8.90
2011,05,24,01,23,8.90
2011,05,24,01,24,8.90
2011,05,24,01,25,8.90
2011,05,24,01,26,8.90
2011,05,24,01,27,8.90
2011,05,24,01,28,8.90
2011,05,24,01,29,8.90
2011,05,24,01,30,8.90
2011,05,24,01,31,8.90
2011,05,24,01,32,8.80
2011,05,24,01,33,8.80
2011,05,24,01,34,8.80
2011,05,24,01,35,8.70
2011,05,24,01,36,8.80
2011,05,24,01,37,8.70
2011,05,24,01,38,8.70
2011,05,24,01,39,8.70
2011,05,24,01,40,8.70
2011,05,24,01,41,8.70
2011,05,24,01,42,8.70
2011,05,24,01,43,8.60
2011,05,24,01,44,8.60
2011,05,24,01,45,8.60
2011,05,24,01,46,8.60
2011,05,24,01,47,8.60
2011,05,24,01,48,8.60
2011,05,24,01,49,8.50
2011,05,24,01,50,8.50
2011,05,24,01,51,8.50
2011,05,24,01,52,8.50
2011,05,24,01,53,8.50
2011,05,24,01,54,8.50
2011,05,24,01,55,8.50
2011,05,24,01,56,8.60
2011,05,24,01,57,8.60
2011,05,24,01,58,8.60
2011,05,24,01,59,8.70
2011,05,24,02,00,8.70
2011,05,24,02,01,8.70
2011,05,24,02,02,8.70
2011,05,24,02,03,8.70
2011,05,24,02,04,8.70
2011,05,24,02,05,8.80
2011,05,24,02,06,8.80
2011,05,24,02,07,8.80
2011,05,24,02,08,8.80
2011,05,24,02,09,8.80
2011,05,24,02,10,8.80
2011,05,24,02,11,8.70
2011,05,24,02,12,8.70
2011,05,24,02,13,8.70
2011,05,24,02,14,8.70
2011,05,24,02,15,8.70
2011,05,24,02,16,8.70
2011,05,24,02,17,8.60
2011,05,24,02,18,8.60
2011,05,24,02,19,8.60
2011,05,24,02,20,8.50
2011,05,24,02,21,8.50
2011,05,24,02,22,8.50
2011,05,24,02,23,8.40
2011,05,24,02,24,8.40
2011,05,24,02,25,8.30
2011,05,24,02,26,8.30
2011,05,24,02,27,8.20
2011,05,24,02,28,8.20
2011,05,24,02,29,8.10
2011,05,24,02,30,8.00
2011,05,24,02,31,8.00
2011,05,24,02,32,7.90
2011,05,24,02,33,7.90
2011,05,24,02,34,7.80
2011,05,24,02,35,7.80
2011,05,24,02,36,7.80
2011,05,24,02,37,7.70
2011,05,24,02,38,7.70
2011,05,24,02,39,7.60
2011,05,24,02,40,7.60
2011,05,24,02,41,7.60
2011,05,24,02,42,7.50
2011,05,24,02,43,7.50
2011,05,24,02,44,7.50
2011,05,24,02,45,7.50
2011,05,24,02,46,7.50
2011,05,24,02,47,7.50
2011,05,24,02,48,7.50
2011,05,24,02,49,7.50
2011,05,24,02,50,7.50
2011,05,24,02,51,7.60
2011,05,24,02,52,7.60
2011,05,24,02,53,7.70
2011,05,24,02,54,7.70
2011,05,24,02,55,7.70
2011,05,24,02,56,7.70
2011,05,24,02,57,7.70
2011,05,24,02,58,7.70
2011,05,24,02,59,7.60
2011,05,24,03,00,7.60
2011,05,24,03,01,7.60
2011,05,24,03,02,7.60
2011,05,24,03,03,7.50
2011,05,24,03,04,7.50
2011,05,24,03,05,7.40
2011,05,24,03,06,7.40
2011,05,24,03,07,7.40
2011,05,24,03,08,7.30
2011,05,24,03,09,7.30
2011,05,24,03,10,7.30
2011,05,24,03,11,7.30
2011,05,24,03,12,7.30
2011,05,24,03,13,7.30
2011,05,24,03,14,7.30
2011,05,24,03,15,7.30
2011,05,24,03,16,7.30
2011,05,24,03,17,7.30
2011,05,24,03,18,7.30
2011,05,24,03,19,7.30
2011,05,24,03,20,7.30
2011,05,24,03,21,7.20
2011,05,24,03,22,7.20
2011,05,24,03,23,7.20
2011,05,24,03,24,7.20
2011,05,24,03,25,7.20
2011,05,24,03,26,7.10
2011,05,24,03,27,7.10
2011,05,24,03,28,7.10
2011,05,24,03,29,7.00
2011,05,24,03,30,7.00
2011,05,24,03,31,7.00
2011,05,24,03,32,7.00
2011,05,24,03,33,7.00
2011,05,24,03,34,7.00
2011,05,24,03,35,7.00
2011,05,24,03,36,7.00
2011,05,24,03,37,7.00
2011,05,24,03,38,7.00
2011,05,24,03,39,7.00
2011,05,24,03,40,7.00
2011,05,24,03,41,7.00
2011,05,24,03,42,7.00
2011,05,24,03,43,7.00
2011,05,24,03,44,6.90
2011,05,24,03,45,6.90
2011,05,24,03,46,6.90
2011,05,24,03,47,6.90
2011,05,24,03,48,6.80
2011,05,24,03,49,6.80
2011,05,24,03,50,6.80
2011,05,24,03,51,6.80
2011,05,24,03,52,6.80
2011,05,24,03,53,6.80
2011,05,24,03,54,6.70
2011,05,24,03,55,6.70
2011,05,24,03,56,6.70
2011,05,24,03,57,6.80
2011,05,24,03,58,6.80
2011,05,24,03,59,6.90
2011,05,24,04,00,7.00
2011,05,24,04,01,7.00
2011,05,24,04,02,7.10
2011,05,24,04,03,7.10
2011,05,24,04,04,7.20
2011,05,24,04,05,7.30
2011,05,24,04,06,7.30
2011,05,24,04,07,7.30
2011,05,24,04,08,7.30
2011,05,24,04,09,7.30
2011,05,24,04,10,7.30
2011,05,24,04,11,7.30
2011,05,24,04,12,7.30
2011,05,24,04,13,7.30
2011,05,24,04,14,7.30
2011,05,24,04,15,7.30
2011,05,24,04,16,7.30
2011,05,24,04,17,7.30
2011,05,24,04,18,7.30
2011,05,24,04,19,7.30
2011,05,24,04,20,7.30
2011,05,24,04,21,7.30
2011,05,24,04,22,7.30
2011,05,24,04,23,7.30
2011,05,24,04,24,7.30
2011,05,24,04,25,7.30
2011,05,24,04,26,7.30
2011,05,24,04,27,7.20
2011,05,24,04,28,7.20
2011,05,24,04,29,7.20
2011,05,24,04,30,7.10
2011,05,24,04,31,7.10
2011,05,24,04,32,7.10
2011,05,24,04,33,7.10
2011,05,24,04,34,7.10
2011,05,24,04,35,7.00
2011,05,24,04,36,7.00
2011,05,24,04,37,7.00
2011,05,24,04,38,7.00
2011,05,24,04,39,6.90
2011,05,24,04,40,6.90
2011,05,24,04,41,6.80
2011,05,24,04,42,6.80
2011,05,24,04,43,6.80
2011,05,24,04,44,6.90
2011,05,24,04,45,6.90
2011,05,24,04,46,6.90
2011,05,24,04,47,7.00
2011,05,24,04,48,7.00
2011,05,24,04,49,7.00
2011,05,24,04,50,6.90
2011,05,24,04,51,6.90
2011,05,24,04,52,6.90
2011,05,24,04,53,6.80
2011,05,24,04,54,6.70
2011,05,24,04,55,6.60
2011,05,24,04,56,6.50
2011,05,24,04,57,6.40
2011,05,24,04,58,6.30
2011,05,24,04,59,6.20
2011,05,24,05,00,6.20
2011,05,24,05,01,6.10
2011,05,24,05,02,6.10
2011,05,24,05,03,6.10
2011,05,24,05,04,6.00
2011,05,24,05,05,6.00
2011,05,24,05,06,6.00
2011,05,24,05,07,6.00
2011,05,24,05,08,5.90
2011,05,24,05,09,5.90
2011,05,24,05,10,5.90
2011,05,24,05,11,5.90
2011,05,24,05,12,5.90
2011,05,24,05,13,5.90
2011,05,24,05,14,6.00
2011,05,24,05,15,6.00
2011,05,24,05,16,6.00
2011,05,24,05,17,6.10
2011,05,24,05,18,6.20
2011,05,24,05,19,6.30
2011,05,24,05,20,6.40
2011,05,24,05,21,6.40
2011,05,24,05,22,6.50
2011,05,24,05,23,6.60
2011,05,24,05,24,6.60
2011,05,24,05,25,6.70
2011,05,24,05,26,6.70
2011,05,24,05,27,6.80
2011,05,24,05,28,6.80
2011,05,24,05,29,6.80
2011,05,24,05,30,6.90
2011,05,24,05,31,6.90
2011,05,24,05,32,6.90
2011,05,24,05,33,6.90
2011,05,24,05,34,6.90
2011,05,24,05,35,7.00
2011,05,24,05,36,7.00
2011,05,24,05,37,7.00
2011,05,24,05,38,7.10
2011,05,24,05,39,7.10
2011,05,24,05,40,7.10
2011,05,24,05,41,7.10
2011,05,24,05,42,7.10
2011,05,24,05,43,7.10
2011,05,24,05,44,7.10
2011,05,24,05,45,7.10
2011,05,24,05,46,7.10
2011,05,24,05,47,7.20
2011,05,24,05,48,7.20
2011,05,24,05,49,7.20
2011,05,24,05,50,7.20
2011,05,24,05,51,7.30
2011,05,24,05,52,7.30
2011,05,24,05,53,7.30
2011,05,24,05,54,7.30
2011,05,24,05,55,7.30
2011,05,24,05,56,7.30
2011,05,24,05,57,7.30
2011,05,24,05,58,7.30
2011,05,24,05,59,7.30
2011,05,24,06,00,7.30
2011,05,24,06,01,7.40
2011,05,24,06,02,7.40
2011,05,24,06,03,7.40
2011,05,24,06,04,7.40
2011,05,24,06,05,7.40
2011,05,24,06,06,7.40
2011,05,24,06,07,7.40
2011,05,24,06,08,7.40
2011,05,24,06,09,7.40
2011,05,24,06,10,7.40
2011,05,24,06,11,7.40
2011,05,24,06,12,7.40
2011,05,24,06,13,7.40
2011,05,24,06,14,7.40
2011,05,24,06,15,7.40
2011,05,24,06,16,7.40
2011,05,24,06,17,7.40
2011,05,24,06,18,7.40
2011,05,24,06,19,7.40
2011,05,24,06,20,7.30
2011,05,24,06,21,7.30
2011,05,24,06,22,7.40
2011,05,24,06,23,7.40
2011,05,24,06,24,7.40
2011,05,24,06,25,7.40
2011,05,24,06,26,7.40
2011,05,24,06,27,7.50
2011,05,24,06,28,7.50
2011,05,24,06,29,7.50
2011,05,24,06,30,7.50
2011,05,24,06,31,7.50
2011,05,24,06,32,7.50
2011,05,24,06,33,7.50
2011,05,24,06,34,7.60
2011,05,24,06,35,7.60
2011,05,24,06,36,7.60
2011,05,24,06,37,7.70
2011,05,24,06,38,7.70
2011,05,24,06,39,7.70
2011,05,24,06,40,7.80
2011,05,24,06,41,7.80
2011,05,24,06,42,7.80
2011,05,24,06,43,7.90
2011,05,24,06,44,7.90
2011,05,24,06,45,7.90
2011,05,24,06,46,8.00
2011,05,24,06,47,8.00
2011,05,24,06,48,8.10
2011,05,24,06,49,8.10
2011,05,24,06,50,8.10
2011,05,24,06,51,8.20
2011,05,24,06,52,8.20
2011,05,24,06,53,8.20
2011,05,24,06,54,8.20
2011,05,24,06,55,8.20
2011,05,24,06,56,8.20
2011,05,24,06,57,8.30
2011,05,24,06,58,8.30
2011,05,24,06,59,8.30
2011,05,24,07,00,8.40
2011,05,24,07,01,8.40
2011,05,24,07,02,8.40
2011,05,24,07,03,8.50
2011,05,24,07,04,8.50
2011,05,24,07,05,8.50
2011,05,24,07,06,8.50
2011,05,24,07,07,8.60
2011,05,24,07,08,8.60
2011,05,24,07,09,8.60
2011,05,24,07,10,8.60
2011,05,24,07,11,8.70
2011,05,24,07,12,8.70
2011,05,24,07,13,8.70
2011,05,24,07,14,8.70
2011,05,24,07,15,8.70
2011,05,24,07,16,8.70
2011,05,24,07,17,8.70
2011,05,24,07,18,8.80
2011,05,24,07,19,8.80
2011,05,24,07,20,8.80
2011,05,24,07,21,8.80
2011,05,24,07,22,8.90
2011,05,24,07,23,8.90
2011,05,24,07,24,9.00
2011,05,24,07,25,9.10
2011,05,24,07,26,9.20
2011,05,24,07,27,9.20
2011,05,24,07,28,9.30
2011,05,24,07,29,9.40
2011,05,24,07,30,9.50
2011,05,24,07,31,9.50
2011,05,24,07,32,9.60
2011,05,24,07,33,9.70
2011,05,24,07,34,9.80
2011,05,24,07,35,9.90
2011,05,24,07,36,9.90
2011,05,24,07,37,10.10
2011,05,24,07,38,10.10
2011,05,24,07,39,10.20
2011,05,24,07,40,10.30
2011,05,24,07,41,10.30
2011,05,24,07,42,10.40
2011,05,24,07,43,10.40
2011,05,24,07,44,10.40
2011,05,24,07,45,10.50
2011,05,24,07,46,10.60
2011,05,24,07,47,10.70
2011,05,24,07,48,10.70
2011,05,24,07,49,10.80
2011,05,24,07,50,10.90
2011,05,24,07,51,10.90
2011,05,24,07,52,10.90
2011,05,24,07,53,10.90
2011,05,24,07,54,10.90
2011,05,24,07,55,11.00
2011,05,24,07,56,11.10
2011,05,24,07,57,11.10
2011,05,24,07,58,11.20
2011,05,24,07,59,11.20
2011,05,24,08,00,11.30
2011,05,24,08,01,11.30
2011,05,24,08,02,11.40
2011,05,24,08,03,11.40
2011,05,24,08,04,11.40
2011,05,24,08,05,11.50
2011,05,24,08,06,11.60
2011,05,24,08,07,11.70
2011,05,24,08,08,11.70
2011,05,24,08,09,11.80
2011,05,24,08,10,11.90
2011,05,24,08,11,11.90
2011,05,24,08,12,11.90
2011,05,24,08,13,11.90
2011,05,24,08,14,11.90
2011,05,24,08,15,11.90
2011,05,24,08,16,11.90
2011,05,24,08,17,12.00
2011,05,24,08,18,12.10
2011,05,24,08,19,12.10
2011,05,24,08,20,12.20
2011,05,24,08,21,12.30
2011,05,24,08,22,12.30
2011,05,24,08,23,12.30
2011,05,24,08,24,12.40
2011,05,24,08,25,12.50
2011,05,24,08,26,12.50
2011,05,24,08,27,12.50
2011,05,24,08,28,12.50
2011,05,24,08,29,12.60
2011,05,24,08,30,12.60
2011,05,24,08,31,12.70
2011,05,24,08,32,12.70
2011,05,24,08,33,12.70
2011,05,24,08,34,12.70
2011,05,24,08,35,12.70
2011,05,24,08,36,12.70
2011,05,24,08,37,12.80
2011,05,24,08,38,12.80
2011,05,24,08,39,12.90
2011,05,24,08,40,13.00
2011,05,24,08,41,13.10
2011,05,24,08,42,13.20
2011,05,24,08,43,13.20
2011,05,24,08,44,13.30
2011,05,24,08,45,13.30
2011,05,24,08,46,13.30
2011,05,24,08,47,13.20
2011,05,24,08,48,13.10
2011,05,24,08,49,13.10
2011,05,24,08,50,13.10
2011,05,24,08,51,13.10
2011,05,24,08,52,13.20
2011,05,24,08,53,13.20
2011,05,24,08,54,13.30
2011,05,24,08,55,13.30
2011,05,24,08,56,13.50
2011,05,24,08,57,13.60
2011,05,24,08,58,13.60
2011,05,24,08,59,13.60
2011,05,24,09,00,13.60
2011,05,24,09,01,13.60
2011,05,24,09,02,13.60
2011,05,24,09,03,13.50
2011,05,24,09,04,13.40
2011,05,24,09,05,13.30
2011,05,24,09,06,13.30
2011,05,24,09,07,13.40
2011,05,24,09,08,13.50
2011,05,24,09,09,13.60
2011,05,24,09,10,13.60
2011,05,24,09,11,13.70
2011,05,24,09,12,13.70
2011,05,24,09,13,13.80
2011,05,24,09,14,13.90
2011,05,24,09,15,14.00
2011,05,24,09,16,14.00
2011,05,24,09,17,14.10
2011,05,24,09,18,14.20
2011,05,24,09,19,14.30
2011,05,24,09,20,14.30
2011,05,24,09,21,14.40
2011,05,24,09,22,14.50
2011,05,24,09,23,14.60
2011,05,24,09,24,14.50
2011,05,24,09,25,14.50
2011,05,24,09,26,14.60
2011,05,24,09,27,14.50
2011,05,24,09,28,14.30
2011,05,24,09,29,14.30
2011,05,24,09,30,14.20
2011,05,24,09,31,14.10
2011,05,24,09,32,14.00
2011,05,24,09,33,13.90
2011,05,24,09,34,13.70
2011,05,24,09,35,13.60
2011,05,24,09,36,13.40
2011,05,24,09,37,13.30
2011,05,24,09,38,13.00
2011,05,24,09,39,12.90
2011,05,24,09,40,12.80
2011,05,24,09,41,12.80
2011,05,24,09,42,12.70
2011,05,24,09,43,12.70
2011,05,24,09,44,12.80
2011,05,24,09,45,12.90
2011,05,24,09,46,12.90
2011,05,24,09,47,12.80
2011,05,24,09,48,12.80
2011,05,24,09,49,12.80
2011,05,24,09,50,12.80
2011,05,24,09,51,12.80
2011,05,24,09,52,12.80
2011,05,24,09,53,12.90
2011,05,24,09,54,13.00
2011,05,24,09,55,13.00
2011,05,24,09,56,13.00
2011,05,24,09,57,12.90
2011,05,24,09,58,12.90
2011,05,24,09,59,12.80
2011,05,24,10,00,12.80
2011,05,24,10,01,12.90
2011,05,24,10,02,13.00
2011,05,24,10,03,13.00
2011,05,24,10,04,13.00
2011,05,24,10,05,13.10
2011,05,24,10,06,13.00
2011,05,24,10,07,13.00
2011,05,24,10,08,12.90
2011,05,24,10,09,12.80
2011,05,24,10,10,12.80
2011,05,24,10,11,12.80
2011,05,24,10,12,12.90
2011,05,24,10,13,13.10
2011,05,24,10,14,13.10
2011,05,24,10,15,13.00
2011,05,24,10,16,12.90
2011,05,24,10,17,12.80
2011,05,24,10,18,12.80
2011,05,24,10,19,12.80
2011,05,24,10,20,12.80
2011,05,24,10,21,12.80
2011,05,24,10,22,12.90
2011,05,24,10,23,12.90
2011,05,24,10,24,12.90
2011,05,24,10,25,12.90
2011,05,24,10,26,12.90
2011,05,24,10,27,12.90
2011,05,24,10,28,13.00
2011,05,24,10,29,13.10
2011,05,24,10,30,13.10
2011,05,24,10,31,13.10
2011,05,24,10,32,13.00
2011,05,24,10,33,12.80
2011,05,24,10,34,12.70
2011,05,24,10,35,12.70
2011,05,24,10,36,12.70
2011,05,24,10,37,12.70
2011,05,24,10,38,12.80
2011,05,24,10,39,12.80
2011,05,24,10,40,12.60
2011,05,24,10,41,12.60
2011,05,24,10,42,12.60
2011,05,24,10,43,12.60
2011,05,24,10,44,12.70
2011,05,24,10,45,12.80
2011,05,24,10,46,12.80
2011,05,24,10,47,12.80
2011,05,24,10,48,13.00
2011,05,24,10,49,13.10
2011,05,24,10,50,13.20
2011,05,24,10,51,13.20
2011,05,24,10,52,13.20
2011,05,24,10,53,13.10
2011,05,24,10,54,13.00
2011,05,24,10,55,13.10
2011,05,24,10,56,13.10
2011,05,24,10,57,13.10
2011,05,24,10,58,13.00
2011,05,24,10,59,13.10
2011,05,24,11,00,13.00
2011,05,24,11,01,13.00
2011,05,24,11,02,13.00
2011,05,24,11,03,12.90
2011,05,24,11,04,13.00
2011,05,24,11,05,13.00
2011,05,24,11,06,12.80
2011,05,24,11,07,12.80
2011,05,24,11,08,12.80
2011,05,24,11,09,12.90
2011,05,24,11,10,12.90
2011,05,24,11,11,12.90
2011,05,24,11,12,13.00
2011,05,24,11,13,13.00
2011,05,24,11,14,13.10
2011,05,24,11,15,13.30
2011,05,24,11,16,13.30
2011,05,24,11,17,13.20
2011,05,24,11,18,13.10
2011,05,24,11,19,13.10
2011,05,24,11,20,13.20
2011,05,24,11,21,13.20
2011,05,24,11,22,13.30
2011,05,24,11,23,13.40
2011,05,24,11,24,13.40
2011,05,24,11,25,13.40
2011,05,24,11,26,13.30
2011,05,24,11,27,13.20
2011,05,24,11,28,13.30
2011,05,24,11,29,13.30
2011,05,24,11,30,13.40
2011,05,24,11,31,13.40
2011,05,24,11,32,13.30
2011,05,24,11,33,13.30
2011,05,24,11,34,13.30
2011,05,24,11,35,13.40
2011,05,24,11,36,13.40
2011,05,24,11,37,13.40
2011,05,24,11,38,13.20
2011,05,24,11,39,13.10
2011,05,24,11,40,13.10
2011,05,24,11,41,13.10
2011,05,24,11,42,13.00
2011,05,24,11,43,13.10
2011,05,24,11,44,13.20
2011,05,24,11,45,13.10
2011,05,24,11,46,13.10
2011,05,24,11,47,13.00
2011,05,24,11,48,13.10
2011,05,24,11,49,13.20
2011,05,24,11,50,13.30
2011,05,24,11,51,13.30
2011,05,24,11,52,13.30
2011,05,24,11,53,13.40
2011,05,24,11,54,13.50
2011,05,24,11,55,13.60
2011,05,24,11,56,13.70
2011,05,24,11,57,13.60
2011,05,24,11,58,13.50
2011,05,24,11,59,13.50
2011,05,24,12,00,13.50
2011,05,24,12,01,13.50
2011,05,24,12,02,13.60
2011,05,24,12,03,13.60
2011,05,24,12,04,13.60
2011,05,24,12,05,13.70
2011,05,24,12,06,13.70
2011,05,24,12,07,13.50
2011,05,24,12,08,13.60
2011,05,24,12,09,13.60
2011,05,24,12,10,13.50
2011,05,24,12,11,13.40
2011,05,24,12,12,13.30
2011,05,24,12,13,13.40
2011,05,24,12,14,13.60
2011,05,24,12,15,13.70
2011,05,24,12,16,13.70
2011,05,24,12,17,13.80
2011,05,24,12,18,13.90
2011,05,24,12,19,13.90
2011,05,24,12,20,13.70
2011,05,24,12,21,13.70
2011,05,24,12,22,13.70
2011,05,24,12,23,13.70
2011,05,24,12,24,13.70
2011,05,24,12,25,13.80
2011,05,24,12,26,13.90
2011,05,24,12,27,13.90
2011,05,24,12,28,14.10
2011,05,24,12,29,14.30
2011,05,24,12,30,14.30
2011,05,24,12,31,14.30
2011,05,24,12,32,14.20
2011,05,24,12,33,14.20
2011,05,24,12,34,14.20
2011,05,24,12,35,13.90
2011,05,24,12,36,13.70
2011,05,24,12,37,13.70
2011,05,24,12,38,13.80
2011,05,24,12,39,13.90
2011,05,24,12,40,13.70
2011,05,24,12,41,13.50
2011,05,24,12,42,13.30
2011,05,24,12,43,13.40
2011,05,24,12,44,13.50
2011,05,24,12,45,13.60
2011,05,24,12,46,13.60
2011,05,24,12,47,13.50
2011,05,24,12,48,13.50
2011,05,24,12,49,13.40
2011,05,24,12,50,13.50
2011,05,24,12,51,13.60
2011,05,24,12,52,13.70
2011,05,24,12,53,13.60
2011,05,24,12,54,13.60
2011,05,24,12,55,13.60
2011,05,24,12,56,13.60
2011,05,24,12,57,13.70
2011,05,24,12,58,13.70
2011,05,24,12,59,13.70
2011,05,24,13,00,13.60
2011,05,24,13,01,13.50
2011,05,24,13,02,13.40
2011,05,24,13,03,13.50
2011,05,24,13,04,13.50
2011,05,24,13,05,13.60
2011,05,24,13,06,13.60
2011,05,24,13,07,13.60
2011,05,24,13,08,13.60
2011,05,24,13,09,13.60
2011,05,24,13,10,13.60
2011,05,24,13,11,13.50
2011,05,24,13,12,13.60
2011,05,24,13,13,13.80
2011,05,24,13,14,13.90
2011,05,24,13,15,13.90
2011,05,24,13,16,13.90
2011,05,24,13,17,13.80
2011,05,24,13,18,13.70
2011,05,24,13,19,13.50
2011,05,24,13,20,13.50
2011,05,24,13,21,13.60
2011,05,24,13,22,13.60
2011,05,24,13,23,13.70
2011,05,24,13,24,13.80
2011,05,24,13,25,13.90
2011,05,24,13,26,14.00
2011,05,24,13,27,14.10
2011,05,24,13,28,14.20
2011,05,24,13,29,14.10
2011,05,24,13,30,14.00
2011,05,24,13,31,13.80
2011,05,24,13,32,13.60
2011,05,24,13,33,13.50
2011,05,24,13,34,13.20
2011,05,24,13,35,12.90
2011,05,24,13,36,12.70
2011,05,24,13,37,12.80
2011,05,24,13,38,12.80
2011,05,24,13,39,13.00
2011,05,24,13,40,13.10
2011,05,24,13,41,13.20
2011,05,24,13,42,13.40
2011,05,24,13,43,13.50
2011,05,24,13,44,13.60
2011,05,24,13,45,13.40
2011,05,24,13,46,13.30
2011,05,24,13,47,13.40
2011,05,24,13,48,13.30
2011,05,24,13,49,13.40
2011,05,24,13,50,13.50
2011,05,24,13,51,13.40
2011,05,24,13,52,13.50
2011,05,24,13,53,13.50
2011,05,24,13,54,13.60
2011,05,24,13,55,13.60
2011,05,24,13,56,13.60
2011,05,24,13,57,13.70
2011,05,24,13,58,13.70
2011,05,24,13,59,13.60
2011,05,24,14,00,13.60
2011,05,24,14,01,13.70
2011,05,24,14,02,13.80
2011,05,24,14,03,13.60
2011,05,24,14,04,13.50
2011,05,24,14,05,13.40
2011,05,24,14,06,13.30
2011,05,24,14,07,13.20
2011,05,24,14,08,13.20
2011,05,24,14,09,13.20
2011,05,24,14,10,13.40
2011,05,24,14,11,13.50
2011,05,24,14,12,13.60
2011,05,24,14,13,13.70
2011,05,24,14,14,13.70
2011,05,24,14,15,13.70
2011,05,24,14,16,13.70
2011,05,24,14,17,13.70
2011,05,24,14,18,13.80
2011,05,24,14,19,13.80
2011,05,24,14,20,13.80
2011,05,24,14,21,13.70
2011,05,24,14,22,13.70
2011,05,24,14,23,13.70
2011,05,24,14,24,13.60
2011,05,24,14,25,13.40
2011,05,24,14,26,13.30
2011,05,24,14,27,13.30
2011,05,24,14,28,13.50
2011,05,24,14,29,13.50
2011,05,24,14,30,13.60
2011,05,24,14,31,13.70
2011,05,24,14,32,13.70
2011,05,24,14,33,13.70
2011,05,24,14,34,13.80
2011,05,24,14,35,13.80
2011,05,24,14,36,13.90
2011,05,24,14,37,14.00
2011,05,24,14,38,13.90
2011,05,24,14,39,13.90
2011,05,24,14,40,13.70
2011,05,24,14,41,13.60
2011,05,24,14,42,13.70
2011,05,24,14,43,13.60
2011,05,24,14,44,13.70
2011,05,24,14,45,13.70
2011,05,24,14,46,13.70
2011,05,24,14,47,13.70
2011,05,24,14,48,13.70
2011,05,24,14,49,13.70
2011,05,24,14,50,13.70
2011,05,24,14,51,13.60
2011,05,24,14,52,13.70
2011,05,24,14,53,13.70
2011,05,24,14,54,13.70
2011,05,24,14,55,13.70
2011,05,24,14,56,13.70
2011,05,24,14,57,13.90
2011,05,24,14,58,14.00
2011,05,24,14,59,14.10
2011,05,24,15,00,14.10
2011,05,24,15,01,14.00
2011,05,24,15,02,14.00
2011,05,24,15,03,14.10
2011,05,24,15,04,14.10
2011,05,24,15,05,14.20
2011,05,24,15,06,14.20
2011,05,24,15,07,14.20
2011,05,24,15,08,14.10
2011,05,24,15,09,14.00
2011,05,24,15,10,13.90
2011,05,24,15,11,13.80
2011,05,24,15,12,13.90
2011,05,24,15,13,14.00
2011,05,24,15,14,14.00
2011,05,24,15,15,14.10
2011,05,24,15,16,14.20
2011,05,24,15,17,14.20
2011,05,24,15,18,14.20
2011,05,24,15,19,14.10
2011,05,24,15,20,13.80
2011,05,24,15,21,13.70
2011,05,24,15,22,13.80
2011,05,24,15,23,13.70
2011,05,24,15,24,13.60
2011,05,24,15,25,13.60
2011,05,24,15,26,13.70
2011,05,24,15,27,13.80
2011,05,24,15,28,13.90
2011,05,24,15,29,13.90
2011,05,24,15,30,13.90
2011,05,24,15,31,14.00
2011,05,24,15,32,14.10
2011,05,24,15,33,14.20
2011,05,24,15,34,14.20
2011,05,24,15,35,14.20
2011,05,24,15,36,14.20
2011,05,24,15,37,14.10
2011,05,24,15,38,13.90
2011,05,24,15,39,13.80
2011,05,24,15,40,13.80
2011,05,24,15,41,13.70
2011,05,24,15,42,13.60
2011,05,24,15,43,13.70
2011,05,24,15,44,13.70
2011,05,24,15,45,13.80
2011,05,24,15,46,13.90
2011,05,24,15,47,14.00
2011,05,24,15,48,14.10
2011,05,24,15,49,14.00
2011,05,24,15,50,14.00
2011,05,24,15,51,14.00
2011,05,24,15,52,14.00
2011,05,24,15,53,14.10
2011,05,24,15,54,14.10
2011,05,24,15,55,14.10
2011,05,24,15,56,14.10
2011,05,24,15,57,14.00
2011,05,24,15,58,13.90
2011,05,24,15,59,14.00
2011,05,24,16,00,14.10
2011,05,24,16,01,14.20
2011,05,24,16,02,14.40
2011,05,24,16,03,14.50
2011,05,24,16,04,14.50
2011,05,24,16,05,14.60
2011,05,24,16,06,14.60
2011,05,24,16,07,14.50
2011,05,24,16,08,14.50
2011,05,24,16,09,14.40
2011,05,24,16,10,14.30
2011,05,24,16,11,14.20
2011,05,24,16,12,14.10
2011,05,24,16,13,13.90
2011,05,24,16,14,13.90
2011,05,24,16,15,13.90
2011,05,24,16,16,13.90
2011,05,24,16,17,13.90
2011,05,24,16,18,14.00
2011,05,24,16,19,14.20
2011,05,24,16,20,14.20
2011,05,24,16,21,14.30
2011,05,24,16,22,14.40
2011,05,24,16,23,14.40
2011,05,24,16,24,14.50
2011,05,24,16,25,14.50
2011,05,24,16,26,14.50
2011,05,24,16,27,14.40
2011,05,24,16,28,14.40
2011,05,24,16,29,14.30
2011,05,24,16,30,14.30
2011,05,24,16,31,14.20
2011,05,24,16,32,14.20
2011,05,24,16,33,14.20
2011,05,24,16,34,14.30
2011,05,24,16,35,14.30
2011,05,24,16,36,14.30
2011,05,24,16,37,14.40
2011,05,24,16,38,14.40
2011,05,24,16,39,14.50
2011,05,24,16,40,14.50
2011,05,24,16,41,14.60
2011,05,24,16,42,14.70
2011,05,24,16,43,14.80
2011,05,24,16,44,14.80
2011,05,24,16,45,14.80
2011,05,24,16,46,14.80
2011,05,24,16,47,14.80
2011,05,24,16,48,14.80
2011,05,24,16,49,14.80
2011,05,24,16,50,14.70
2011,05,24,16,51,14.60
2011,05,24,16,52,14.60
2011,05,24,16,53,14.60
2011,05,24,16,54,14.60
2011,05,24,16,55,14.60
2011,05,24,16,56,14.60
2011,05,24,16,57,14.70
2011,05,24,16,58,14.70
2011,05,24,16,59,14.70
2011,05,24,17,00,14.70
2011,05,24,17,01,14.60
2011,05,24,17,02,14.50
2011,05,24,17,03,14.50
2011,05,24,17,04,14.50
2011,05,24,17,05,14.50
2011,05,24,17,06,14.60
2011,05,24,17,07,14.70
2011,05,24,17,08,14.80
2011,05,24,17,09,14.80
2011,05,24,17,10,14.70
2011,05,24,17,11,14.70
2011,05,24,17,12,14.60
2011,05,24,17,13,14.60
2011,05,24,17,14,14.70
2011,05,24,17,15,14.80
2011,05,24,17,16,14.70
2011,05,24,17,17,14.70
2011,05,24,17,18,14.70
2011,05,24,17,19,14.60
2011,05,24,17,20,14.60
2011,05,24,17,21,14.60
2011,05,24,17,22,14.60
2011,05,24,17,23,14.70
2011,05,24,17,24,14.60
2011,05,24,17,25,14.50
2011,05,24,17,26,14.60
2011,05,24,17,27,14.60
2011,05,24,17,28,14.70
2011,05,24,17,29,14.80
2011,05,24,17,30,14.80
2011,05,24,17,31,14.90
2011,05,24,17,32,15.00
2011,05,24,17,33,15.00
2011,05,24,17,34,15.10
2011,05,24,17,35,15.10
2011,05,24,17,36,15.10
2011,05,24,17,37,15.10
2011,05,24,17,38,15.20
2011,05,24,17,39,15.20